Regional Weather Roundup
Issued by NWS

Home | Current Version | Previous Version | Text Only | Print | Product List | Glossary Off
Versions: 1 2 3 4 5 6 7 8 9 10 11 12 13 14 15 16 17 18 19 20 21 22 23 24 25 26 27 28 29 30 31 32 33 34 35 36 37 38 39 40 41 42 43 44 45 46 47 48 49 50

000
ASUS45 KBOU 270407
RWRCO

WEATHER ROUNDUP FOR COLORADO
NATIONAL WEATHER SERVICE DENVER/BOULDER CO
1000 PM MDT WED JUL 26 2017

NOTE: "FAIR" INDICATES FEW OR NO CLOUDS BELOW 12000 FEET WITH NO
SIGNIFICANT WEATHER AND/OR OBSTRUCTIONS TO VISIBILITY.

COZ001>005-013-030-031-270500-
...NORTHWEST COLORADO...

CITY           SKY/WX    TMP DP  RH WIND       PRES   REMARKS
CRAIG          FAIR      63  58  83 CALM      30.28R
HAYDEN         FAIR      64  55  72 SE3       30.31R
MEEKER         FAIR      67  59  75 CALM      30.29R
RABBIT EARS PA FAIR      52  50  93 CALM      30.61R
STEAMBOAT SPGS FAIR      64  59  83 CALM      30.34R
WALDEN         FAIR      57  54  88 CALM      30.44S
$$

COZ006>008-011-270500-
...WEST CENTRAL VALLEYS...

CITY           SKY/WX    TMP DP  RH WIND       PRES   REMARKS
GRAND JUNCTION FAIR      79  57  46 N6        30.13R
MONTROSE       FAIR      75  60  59 S9        30.23R
EAGLE          FAIR      70  57  63 CALM      30.31
RIFLE          FAIR      76  59  55 W3        30.20R
DELTA          FAIR      80  56  43 E6        30.17R
NUCLA          FAIR      73  54  49 SW3       30.27R
$$

COZ017>023-064>068-270500-
...SOUTHWEST COLORADO...

CITY           SKY/WX    TMP DP  RH WIND       PRES   REMARKS
DURANGO        FAIR      74  51  44 W6        30.26S
CORTEZ         FAIR      75  57  53 VRB3      30.22R
PAGOSA SPRINGS FAIR      71  46  40 N3        30.37R
TELLURIDE      FAIR      58  54  86 CALM      30.52R
WOLF CREEK PAS LGT RAIN  50  45  81 CALM      30.76R
$$

COZ009-010-012-014-032>034-037-058>063-270500-
...CENTRAL COLORADO...

CITY           SKY/WX    TMP DP  RH WIND       PRES   REMARKS
ASPEN          FAIR      63  55  75 CALM      30.38R
BUENA VISTA    LGT RAIN  60  55  84 NE6G17    30.43R
COPPER MTN     MOCLDY    55  46  71 NW10      30.72S
BERTHOUD PASS  CLOUDY    43  32  65 NE3       30.75S
COTTONWOOD PAS CLOUDY    61  52  72 E7        30.57R
GUNNISON       FAIR      67  52  58 CALM      30.37R
KREMMLING      FAIR      63  57  82 CALM      30.40R
LEADVILLE      FAIR      56  48  74 N6        30.50R
MONARCH PASS     N/A     50  46  87 W13       30.81S
SALIDA         FAIR      69  56  62 SE16G25   30.43R
SUNLIGHT       FAIR      52  46  82 W7        30.65R
WILKERSON PASS RAIN      48  45  87 NE9       30.70R
$$

COZ069>075-270500-
...SAN LUIS VALLEY/SANGRE DE CRISTO MOUNTAINS...

CITY           SKY/WX    TMP DP  RH WIND       PRES   REMARKS
ALAMOSA        MOCLDY    64  59  83 CALM      30.36R
DEL NORTE      FAIR      63  51  63 SW10      30.40R
LA VETA PASS   NOT AVBL
SAGUACHE         N/A    N/A N/A N/A MISG        N/A
$$

COZ035-036-038>040-270500-
...NORTHERN COLORADO FRONT RANGE...

CITY           SKY/WX    TMP DP  RH WIND       PRES   REMARKS
DENVER INTL AP LGT RAIN  68  60  75 W3        30.30R
DMNS CITY PARK   N/A     64  62  96 E10       30.30S
AURORA         LGT RAIN  65  64  99 W5        30.33R
FRONT RANGE AP LGT RAIN  68  64  88 S6        30.31R
ERIE MUNI ARPT RAIN      65  62  90 N6        30.28F
BOULDER MUN AP LGT RAIN  64  63  94 SW5       30.30R
CENTENNIAL     LGT RAIN  63  63 100 NW7       30.34R FOG
BROOMFIELD     LGT RAIN  63  61  94 NW10      30.32F
FORT COLLINS   CLOUDY    67  64  90 S6        30.27S
LONGMONT       RAIN      67  64  89 SW5       30.30S
$$

COZ041-046-047-076>085-087-088-270500-
...PIKES PEAK/PALMER DIVIDE AND SOUTHERN FOOTHILLS...

CITY           SKY/WX    TMP DP  RH WIND       PRES   REMARKS
COLO. SPRINGS  TSTM      63  63 100 NE10      30.36R FOG
A. F. ACADEMY  LGT RAIN  62  60  92 E6        30.37R
SCHRIEVER AFB  TSTM      63  61  94 N8G18     30.37R
CHEYENNE MTN   SHOWER    62  59  91 NW9       30.35R
ELLICOTT       TSTM     N/A N/A N/A N7        30.36R
FALCON           N/A     63  61  96 S7        30.41R
FORT CARSON    LGT RAIN  64  63  97 N8        30.32R
LIMON          FAIR      68  65  90 NE3       30.28R
MONUMENT HILL  RAIN      57  55  94 SW5       30.41R
CANON CITY     MOCLDY    70  64  83 SE8       30.28R
WALSENBURG     MOCLDY    66  63  88 N6        30.32R
TRINIDAD       MOCLDY    68  60  75 N6        30.29R
$$

COZ042>045-048>051-090-091-270500-
...NORTHEAST COLORADO...

CITY           SKY/WX    TMP DP  RH WIND       PRES   REMARKS
GREELEY ARPT   FAIR      68  65  90 W6        30.26R
AKRON          FAIR      69  62  78 E7        30.23R
BURLINGTON     FAIR      70  66  87 E8        30.20R
WRAY           NOT AVBL
YUMA           FAIR      66  57  72 E3        30.19S
STERLING       FAIR      72  64  78 SE3       30.18S
HOLYOKE        FAIR      70  64  83 CALM      30.18S
FORT MORGAN    FAIR      70  60  72 NE3       30.23S
$$

COZ086-089-092>099-270500-
...SOUTHEAST COLORADO...

CITY           SKY/WX    TMP DP  RH WIND       PRES   REMARKS
PUEBLO         FAIR      69  65  86 CALM      30.23R
LA JUNTA       LGT RAIN  74  69  85 CALM      30.18S
LAMAR          FAIR      77  65  66 E12       30.12R
SPRINGFIELD      N/A     75  66  73 E10       30.17R
$$



USA.gov is the U.S. government's official web portal to all federal, state and local government web resources and services.